K3JAR-3 Weather Reports


Display with metric or nautical units.
time (UTC)temp
F
wind
direction
speed
MPH
gust
MPH
rain 1hr
in
rain 24hr
in
rain mn
in
humidity
%
barometer
mb
20260902045041 86 165 6.0 8.0 0.00 0.00 0.00 61 1016.8
20260902044020 86 149 5.0 7.0 0.00 0.00 0.00 61 1016.9
20260902043023 87 156 5.0 9.0 0.00 0.00 0.00 60 1016.9
20260902042027 87 132 6.0 10.0 0.00 0.00 0.00 59 1016.8
20260902041029 88 146 5.0 9.0 0.00 0.00 0.00 58 1016.8
20260902040032 88 142 5.0 7.0 0.00 0.00 0.00 58 1016.6
20260902035022 88 100 2.0 3.0 0.00 0.00 0.00 58 1016.6
20260902034025 88 104 2.0 3.0 0.00 0.00 0.00 58 1016.5
20260902033024 88 104 2.0 2.0 0.00 0.00 0.00 57 1016.4
20260902032027 88 98 2.0 4.0 0.00 0.00 0.00 57 1016.3
20260902031050 88 121 2.0 4.0 0.00 0.00 0.00 57 1016.3
20260902030015 89 122 2.0 3.0 0.00 0.00 0.00 56 1016.1
20260902025018 89 101 3.0 5.0 0.00 0.00 0.00 56 1015.9
20260902024021 89 116 2.0 4.0 0.00 0.00 0.00 55 1015.6
20260902023018 89 117 2.0 3.0 0.00 0.00 0.00 54 1015.6
20260902022016 90 82 2.0 4.0 0.00 0.00 0.00 54 1015.5
20260902021031 90 121 2.0 4.0 0.00 0.00 0.00 53 1015.4
20260902020016 90 108 2.0 3.0 0.00 0.00 0.00 52 1015.2
20260902015019 91 112 1.0 3.0 0.00 0.00 0.00 51 1015.1
20260902014022 91 134 2.0 4.0 0.00 0.00 0.00 50 1015.0
20260902013026 92 120 2.0 4.0 0.00 0.00 0.00 49 1015.0
20260902012029 92 101 3.0 5.0 0.00 0.00 0.00 48 1014.9
20260902011032 93 103 3.0 5.0 0.00 0.00 0.00 47 1014.8
20260902010018 94 96 5.0 6.0 0.00 0.00 0.00 46 1014.7
20260902005021 94 94 6.0 8.0 0.00 0.00 0.00 45 1014.7
20260902004024 95 84 4.0 5.0 0.00 0.00 0.00 45 1014.8
20260902003029 96 82 4.0 5.0 0.00 0.00 0.00 44 1014.8
20260902002031 96 83 6.0 8.0 0.00 0.00 0.00 43 1014.8
20260902001016 97 89 5.0 8.0 0.00 0.00 0.00 43 1015.0
20260902000019 97 96 7.0 9.0 0.00 0.00 0.00 43 1015.0
20260901235022 98 91 5.0 7.0 0.00 0.00 0.00 43 1015.1
20260901234025 98 70 5.0 7.0 0.00 0.00 0.00 42 1015.0
20260901233029 97 100 4.0 6.0 0.00 0.00 0.00 43 1015.1
20260901232026 97 91 7.0 10.0 0.00 0.00 0.00 43 1015.1
20260901231017 97 93 7.0 12.0 0.00 0.00 0.00 42 1015.0
20260901230021 99 87 7.0 10.0 0.00 0.00 0.00 41 1015.2
20260901225018 97 155 3.0 6.0 0.00 0.00 0.00 44 1015.1
20260901224015 101 133 6.0 9.0 0.00 0.00 0.00 39 1015.1
20260901223030 100 128 3.0 4.0 0.00 0.00 0.00 39 1015.1
20260901222041 99 135 3.0 4.0 0.00 0.00 0.00 40 1015.1
20260901221018 99 110 4.0 10.0 0.00 0.00 0.00 39 1015.1
20260901220022 100 51 6.0 8.0 0.00 0.00 0.00 39 1015.3
20260901215025 99 85 6.0 11.0 0.00 0.00 0.00 40 1015.4
20260901214028 100 137 4.0 8.0 0.00 0.00 0.00 40 1015.4
20260901213032 101 79 7.0 11.0 0.00 0.00 0.00 39 1015.5
20260901212017 100 124 4.0 7.0 0.00 0.00 0.00 38 1015.6
20260901211020 100 102 5.0 8.0 0.00 0.00 0.00 39 1015.7
20260901210024 99 66 5.0 9.0 0.00 0.00 0.00 40 1015.8
20260901205027 100 91 5.0 12.0 0.00 0.00 0.00 39 1015.9
20260901204030 102 98 7.0 10.0 0.00 0.00 0.00 38 1016.1
20260901203029 101 113 5.0 8.0 0.00 0.00 0.00 38 1016.1
20260901202031 101 130 3.0 4.0 0.00 0.00 0.00 38 1016.2
20260901201037 102 86 3.0 7.0 0.00 0.00 0.00 38 1016.3
20260901200040 101 149 4.0 5.0 0.00 0.00 0.00 39 1016.6
20260901195108 102 93 6.0 9.0 0.00 0.00 0.00 39 1016.6
20260901194026 101 90 5.0 9.0 0.00 0.00 0.00 39 1016.8
20260901193024 101 102 4.0 8.0 0.00 0.00 0.00 39 1016.9
20260901192015 101 131 3.0 5.0 0.00 0.00 0.00 39 1017.0
20260901191018 100 174 3.0 5.0 0.00 0.00 0.00 40 1017.1
20260901190015 100 89 3.0 5.0 0.00 0.00 0.00 42 1017.3
20260901185024 100 124 4.0 8.0 0.00 0.00 0.00 41 1017.6
20260901184027 99 62 5.0 9.0 0.00 0.00 0.00 42 1017.9
20260901183031 99 85 7.0 10.0 0.00 0.00 0.00 42 1017.9
20260901182016 100 102 6.0 10.0 0.00 0.00 0.00 42 1018.0
20260901181019 96 129 4.0 6.0 0.00 0.00 0.00 46 1018.2
20260901180023 97 186 5.0 6.0 0.00 0.00 0.00 45 1018.4
20260901175026 97 112 3.0 4.0 0.00 0.00 0.00 45 1018.5
20260901174029 95 156 2.0 3.0 0.00 0.00 0.00 47 1018.6
20260901173035 96 161 4.0 7.0 0.00 0.00 0.00 45 1018.8
20260901172018 96 176 4.0 8.0 0.00 0.00 0.00 46 1018.8
20260901171042 97 210 3.0 4.0 0.00 0.00 0.00 46 1018.9
20260901170030 95 207 2.0 4.0 0.00 0.00 0.00 48 1019.1
20260901165029 96 197 4.0 6.0 0.00 0.00 0.00 47 1019.3
20260901164032 95 164 5.0 6.0 0.00 0.00 0.00 48 1019.2
20260901163017 95 174 4.0 9.0 0.00 0.00 0.00 49 1019.3
20260901162020 94 175 5.0 8.0 0.00 0.00 0.00 50 1019.4
20260901161024 94 192 3.0 5.0 0.00 0.00 0.00 50 1019.3
20260901160027 94 142 3.0 5.0 0.00 0.00 0.00 52 1019.3
20260901155024 93 195 4.0 6.0 0.00 0.00 0.00 54 1019.3
20260901154015 92 210 3.0 5.0 0.00 0.00 0.00 54 1019.3
20260901153018 91 184 4.0 6.0 0.00 0.00 0.00 56 1019.3
20260901152016 91 195 3.0 6.0 0.00 0.00 0.00 57 1019.3
20260901151025 91 199 4.0 6.0 0.00 0.00 0.00 58 1019.3
20260901150028 90 186 4.0 6.0 0.00 0.00 0.00 59 1019.4
20260901145037 89 198 3.0 6.0 0.00 0.00 0.00 61 1019.4
20260901144057 88 206 2.0 4.0 0.00 0.00 0.00 63 1019.4
20260901143041 88 213 3.0 5.0 0.00 0.00 0.00 64 1019.5
20260901142024 87 181 3.0 5.0 0.00 0.00 0.00 66 1019.5
20260901141027 86 168 4.0 5.0 0.00 0.00 0.00 67 1019.4
20260901140030 86 160 5.0 7.0 0.00 0.00 0.00 68 1019.5
20260901135015 85 179 3.0 4.0 0.00 0.00 0.00 69 1019.4
20260901134019 85 159 2.0 4.0 0.00 0.00 0.00 70 1019.4
20260901133022 84 159 3.0 5.0 0.00 0.00 0.00 70 1019.4
20260901132025 82 151 2.0 4.0 0.00 0.00 0.00 72 1019.4
20260901131029 82 153 2.0 3.0 0.00 0.00 0.00 72 1019.3
20260901130053 81 161 2.0 3.0 0.00 0.00 0.00 73 1019.1
20260901125017 80 166 0.0 1.0 0.00 0.00 0.00 75 1018.9
20260901124021 79 0.0 0.0 0.00 0.00 0.00 77 1018.9
20260901123024 78 160 1.0 2.0 0.00 0.00 0.00 79 1018.8
20260901122052 77 0.0 1.0 0.00 0.00 0.00 79 1018.6
20260901121022 77 0.0 0.0 0.00 0.00 0.00 79 1018.5
20260901120021 77 0.0 0.0 0.00 0.00 0.00 78 1018.5
20260901115023 77 0.0 0.0 0.00 0.00 0.00 78 1018.4
20260901114027 77 0.0 0.0 0.00 0.00 0.00 77 1018.5
20260901113031 77 0.0 0.0 0.00 0.00 0.00 77 1018.4
20260901112015 78 119 0.0 2.0 0.00 0.00 0.00 75 1018.3
20260901111019 78 138 1.0 2.0 0.00 0.00 0.00 74 1018.1
20260901110021 79 140 1.0 2.0 0.00 0.00 0.00 73 1017.9
20260901105025 79 162 2.0 3.0 0.00 0.00 0.00 72 1018.0
20260901104015 79 180 2.0 3.0 0.00 0.00 0.00 72 1017.9
20260901103039 79 195 3.0 4.0 0.00 0.00 0.00 72 1017.9
20260901102022 80 172 2.0 3.0 0.00 0.00 0.00 71 1018.0
20260901101025 80 178 3.0 3.0 0.00 0.00 0.00 70 1018.0
20260901100048 80 176 2.0 3.0 0.00 0.00 0.00 70 1018.0
20260901095025 81 205 3.0 4.0 0.00 0.00 0.00 69 1018.1
20260901094022 81 157 4.0 5.0 0.00 0.00 0.00 68 1018.1
20260901093020 81 180 3.0 5.0 0.00 0.00 0.00 68 1018.1
20260901092017 82 178 4.0 6.0 0.00 0.00 0.00 67 1018.1
20260901091026 82 171 4.0 6.0 0.00 0.00 0.00 67 1018.0
20260901090030 82 176 3.0 5.0 0.00 0.00 0.00 67 1017.9
20260901085015 82 189 3.0 4.0 0.00 0.00 0.00 66 1018.0
20260901084018 82 195 3.0 4.0 0.00 0.00 0.00 65 1018.0
20260901083021 83 168 3.0 4.0 0.00 0.00 0.00 64 1018.1
20260901082024 83 175 3.0 5.0 0.00 0.00 0.00 64 1018.1
20260901081028 84 155 4.0 6.0 0.00 0.00 0.00 63 1018.0
20260901080057 84 166 5.0 7.0 0.00 0.00 0.00 62 1017.9
20260901075037 84 173 6.0 8.0 0.00 0.00 0.00 62 1018.0
20260901074040 84 178 5.0 6.0 0.00 0.00 0.00 61 1017.9
20260901073028 83 157 4.0 5.0 0.00 0.00 0.00 59 1017.8
20260901072026 84 157 3.0 4.0 0.00 0.00 0.00 58 1017.8
20260901071029 84 165 3.0 4.0 0.00 0.00 0.00 58 1017.7
20260901070015 84 152 3.0 4.0 0.00 0.00 0.00 57 1017.7
20260901065018 85 154 3.0 4.0 0.00 0.00 0.00 56 1017.6
20260901064022 85 155 4.0 5.0 0.00 0.00 0.00 56 1017.3
20260901063024 85 159 4.0 6.0 0.00 0.00 0.00 56 1017.3
20260901062027 85 158 4.0 5.0 0.00 0.00 0.00 56 1017.3
20260901061025 84 163 3.0 4.0 0.00 0.00 0.00 56 1017.2
20260901060016 83 157 2.0 3.0 0.00 0.00 0.00 56 1017.1
20260901055020 83 112 0.0 1.0 0.00 0.00 0.00 55 1017.0
20260901054017 83 142 1.0 2.0 0.00 0.00 0.00 54 1016.8
20260901053046 83 173 2.0 3.0 0.00 0.00 0.00 54 1016.8
20260901052030 83 157 2.0 4.0 0.00 0.00 0.00 54 1016.7
20260901051015 83 112 0.0 1.0 0.00 0.00 0.00 53 1016.6
20260901050058 83 152 0.0 2.0 0.00 0.00 0.00 53 1016.6